Weather History for Gage, OK

Change the Weather History Date:

Wednesday, April 2, 2014

  Actual Average Record
Temperature  
Mean Temperature 64 °F -  
Max Temperature 91 °F 67 °F 91 °F (2003)
Min Temperature 37 °F 39 °F 19 °F (1975)
Degree Days  
Heating Degree Days 1    
Growing Degree Days 14 (Base 50)    
Moisture  
Dew Point 36 °F    
Average Humidity 53    
Maximum Humidity 93    
Minimum Humidity 4    
Precipitation  
Precipitation 0.00 in - - ()
Sea Level Pressure  
Sea Level Pressure 29.62 in    
Wind  
Wind Speed 10 mph (SSE)    
Max Wind Speed 23 mph    
Max Gust Speed 37 mph    
Visibility 10 miles    
Events      
Averages and records for this station are not official NWS values.
T = Trace of Precipitation, MM = Missing Value Source: NWS Daily Summary

Daily Weather History Graph

Daily Weather History Graph

Search for Another Location

Airport:

Trip Planner

Search our weather history database for the weather conditions in past years. The results will help you decide how hot, cold, wet, or windy it might be!

Date:

Astronomy

Apr. 02, 2014 Rise Set
Actual Time 7:23 AM CDT 8:02 PM CDT
Civil Twilight 6:57 AM CDT 8:28 PM CDT
Nautical Twilight 6:27 AM CDT 8:58 PM CDT
Astronomical Twilight 5:55 AM CDT 9:30 PM CDT
Moon 9:14 AM CDT (4/2) 11:21 PM CDT (4/2)
Length of Visible Light 13h 30m
Length of Day
12h 38m
Waxing Crescent, 10% of the Moon is Illuminated
Apr 2
Waxing Crescent
Apr 7
First Quarter
Apr 15
Full
Apr 22
Last Quarter
Apr 29
New

Hourly Weather History & Observations

Time (CDT) Temp. Windchill Dew Point Humidity Pressure Visibility Wind Dir Wind Speed Gust Speed Precip Events Conditions
12:53 AM 50.0 °F - 39.9 °F 68% 29.75 in 10.0 mi East 9.2 mph - N/A   Clear
1:53 AM 46.9 °F - 39.0 °F 74% 29.74 in 10.0 mi East 5.8 mph - N/A   Clear
2:53 AM 46.0 °F 42.5 °F 39.0 °F 76% 29.72 in 10.0 mi East 6.9 mph - N/A   Clear
3:53 AM 44.1 °F 40.8 °F 39.0 °F 82% 29.70 in 10.0 mi East 5.8 mph - N/A   Clear
4:53 AM 39.9 °F 36.7 °F 36.0 °F 86% 29.70 in 10.0 mi ENE 4.6 mph - N/A   Clear
5:53 AM 37.9 °F 35.5 °F 35.1 °F 89% 29.69 in 9.0 mi East 3.5 mph - N/A   Clear
6:01 AM 37.4 °F 33.8 °F 35.6 °F 93% 29.71 in 9.0 mi NE 4.6 mph - N/A   Scattered Clouds
6:10 AM 39.2 °F 35.9 °F 35.6 °F 87% 29.71 in 9.0 mi East 4.6 mph - N/A   Mostly Cloudy
7:53 AM 37.9 °F 34.4 °F 36.0 °F 93% 29.71 in 5.0 mi NE 4.6 mph - N/A   Mostly Cloudy
8:53 AM 48.0 °F - 44.1 °F 86% 29.71 in 6.0 mi Calm Calm - N/A   Overcast
9:20 AM 51.8 °F - 46.4 °F 82% 29.73 in 8.0 mi Variable 3.5 mph - N/A   Scattered Clouds
9:53 AM 61.0 °F - 48.0 °F 62% 29.69 in 10.0 mi SW 11.5 mph - N/A   Clear
10:53 AM 72.0 °F - 39.0 °F 30% 29.69 in 10.0 mi WSW 10.4 mph - N/A   Clear
11:53 AM 81.0 °F - 16.0 °F 9% 29.65 in 10.0 mi WSW 18.4 mph 25.3 mph N/A   Clear
12:53 PM 86.0 °F - 5.0 °F 5% 29.61 in 10.0 mi West 19.6 mph 25.3 mph N/A   Clear
1:53 PM 87.1 °F - 3.9 °F 4% 29.58 in 10.0 mi WSW 11.5 mph 20.7 mph N/A   Clear
2:53 PM 90.0 °F - 9.0 °F 5% 29.54 in 10.0 mi SSW 18.4 mph 27.6 mph N/A   Clear
3:53 PM 91.0 °F - 7.0 °F 4% 29.51 in 10.0 mi South 16.1 mph 28.8 mph N/A   Clear
4:53 PM 89.6 °F - 26.6 °F 10% 29.56 in 10.0 mi South 23.0 mph 36.8 mph N/A   Clear
5:53 PM 87.1 °F - 30.9 °F 13% 29.49 in 10.0 mi South 23.0 mph 32.2 mph N/A   Clear
6:53 PM 82.9 °F - 52.0 °F 34% 29.48 in 10.0 mi South 20.7 mph 26.5 mph N/A   Clear
7:53 PM 78.1 °F - 55.0 °F 45% 29.48 in 10.0 mi South 17.3 mph 27.6 mph N/A   Clear
8:53 PM 75.0 °F - 57.9 °F 55% 29.49 in 10.0 mi South 19.6 mph 28.8 mph N/A   Clear
9:53 PM 73.0 °F - 57.0 °F 57% 29.49 in 10.0 mi South 20.7 mph - N/A   Clear
10:53 PM 71.1 °F - 57.0 °F 61% 29.48 in 10.0 mi South 23.0 mph 28.8 mph N/A   Clear
11:53 PM 70.0 °F - 55.9 °F 61% 29.48 in 10.0 mi South 19.6 mph - N/A   Clear